Regional Weather Roundup
Issued by NWS

Home | Current Version | Previous Version | Text Only | Print | Product List | Glossary On
Versions: 1 2 3 4 5 6 7 8 9 10 11 12 13 14 15 16 17 18 19 20 21 22 23 24 25 26 27 28 29 30 31 32 33 34 35 36 37 38 39 40 41 42 43 44 45 46 47 48 49 50
000
ASUS43 KDMX 262006
RWRIA

WEATHER ROUNDUP FOR IOWA
NATIONAL WEATHER SERVICE DES MOINES IA
300 PM CDT TUE SEP 26 2017

NOTE: "FAIR" INDICATES FEW OR NO CLOUDS BELOW 12,000 FEET WITH NO
SIGNIFICANT WEATHER AND/OR OBSTRUCTIONS TO VISIBILITY.

* - THESE STATIONS ARE NOT NWS STATIONS...THUS NOT UNDER NWS
QUALITY CONTROL.  THEY ALSO DO NOT REPORT WEATHER SUCH
AS PRECIPITATION OR FOG.

IAZ001>003-012>014-020>022-031>034-043>046-262100-
   NORTHWEST IOWA

CITY           SKY/WX    TMP DP  RH WIND       PRES   REMARKS
CARROLL *      PTSUNNY   66  55  68 NW10G18   30.08
CHEROKEE *     CLOUDY    58  53  82 W6        30.11
DENISON *      CLOUDY    61  52  72 NW12      30.12
LE MARS *      CLOUDY    57  50  77 NW12      30.12
ORANGE CITY *  CLOUDY    57  54  88 NW12      30.11
SHELDON *      CLOUDY    57  50  77 NW8G15    30.09
SIOUX CITY     PTSUNNY   60  52  74 NW6       30.12F
SPENCER        PTSUNNY   63  52  67 W18       30.07F
STORM LAKE *     N/A     61  52  72 NW10      30.09
$$

IAZ055>058-069>071-079>083-090>094-262100-
   SOUTHWEST IOWA

CITY           SKY/WX    TMP DP  RH WIND       PRES   REMARKS
ATLANTIC *       N/A     63  54  72 NW13      30.09
AUDUBON *      PTSUNNY   63  55  77 NW7       30.10
CLARINDA *     CLOUDY    64  55  72 N10       30.11
COUNCIL BLFS * CLOUDY    61  54  77 NW12      30.11
CRESTON *      CLOUDY    63  55  77 NW16      30.08
HARLAN  *      CLOUDY    63  52  67 N9G16     30.13
LAMONI         PTSUNNY   68  59  73 NW13      30.05S
RED OAK *      PTSUNNY   64  54  68 N9G16     30.09
SHENANDOAH *   PTSUNNY   64  54  68 VRB7G14   30.10
$$

IAZ047>049-059>061-072>074-084-262100-
   CENTRAL IOWA

CITY           SKY/WX    TMP DP  RH WIND       PRES   REMARKS
AMES           CLOUDY    64  56  75 N13       30.05S
ANKENY *       CLOUDY    64  55  72 NW15      30.06
BOONE *        CLOUDY    63  55  77 NW12      30.05
CHARITON *     CLOUDY    66  59  77 NW13      30.04
DES MOINES     CLOUDY    64  55  72 NW12      30.05S
GRINNELL*      CLOUDY    68  58  72 NW13      30.04
KNOXVILLE *    CLOUDY    68  57  68 NW15      30.03
MARSHALLTOWN   CLOUDY    64  57  78 NW16      30.03S
NEWTON *       CLOUDY    66  57  72 NW13G21   30.04
PELLA *        PTSUNNY   70  58  67 NW13G18   30.04
PERRY *        CLOUDY    65  55  69 NW9       30.07
$$

IAZ004>006-015-016-023>025-035-036-262100-
   NORTH CENTRAL IOWA

CITY           SKY/WX    TMP DP  RH WIND       PRES   REMARKS
ALGONA *       PTSUNNY   64  52  63 NW10G16   30.06
CLARION *      CLOUDY    64  55  72 NW13      30.05
ESTHERVILLE    CLOUDY    62  52  69 NW12      30.05F
FORT DODGE *   CLOUDY    63  54  72 N7        30.07S
MASON CITY     CLOUDY    62  52  69 NW15      30.06S
FOREST CITY *  CLOUDY    61  52  72 NW10      30.05
WEBSTER CITY * CLOUDY    64  54  68 NW10      30.04
IOWA FALLS *   CLOUDY    64  55  75 NW14      30.06
$$

IAZ007>011-017>019-026>030-037>042-050>054-066-262100-
   NORTHEAST IOWA

CITY           SKY/WX    TMP DP  RH WIND       PRES   REMARKS
CEDAR RAPIDS   PTSUNNY   69  62  78 NW14      30.00R
CHARLES CITY * CLOUDY    64  57  77 NW10      30.03
DECORAH *      CLOUDY    64  57  77 NW12G17   30.00
DUBUQUE        CLOUDY    74  64  71 W13       29.97S
MONTICELLO *   CLOUDY    72  64  78 W12G20    29.97
OELWEIN *      CLOUDY    66  61  82 NW13      30.01
WATERLOO       CLOUDY    65  57  75 NW13      30.01R
$$

IAZ064-065-067-068-078-262100-
   EAST CENTRAL IOWA

CITY           SKY/WX    TMP DP  RH WIND       PRES   REMARKS
DAVENPORT      CLOUDY    78  64  61 W10       29.97S HX  80
IOWA CITY      CLOUDY    71  64  78 NW10      30.00R
MT. PLEASANT * CLOUDY    74  63  67 W7        29.99
MUSCATINE *    CLOUDY    77  63  61 W12       29.97  HAZE
QUAD CITIES    CLOUDY    79  66  64 W12       29.95R HX  81
$$

IAZ062-063-075>077-085>089-095>099-262100-
   SOUTHEAST IOWA

CITY           SKY/WX    TMP DP  RH WIND       PRES   REMARKS
BURLINGTON     PTSUNNY   79  66  64 W12       29.97R HX  81
FAIRFIELD *    CLOUDY    72  63  73 NW12G20   30.00
FORT MADISON * PTSUNNY   77  66  69 NW10G16   29.99
KEOKUK *       PTSUNNY   79  66  65 NW9       29.97  HX  81
OSKALOOSA *    CLOUDY    70  60  70 MISG      30.02
CENTERVILLE *  PTSUNNY   68  63  83 NW10      30.05R
OTTUMWA        CLOUDY    71  62  73 NW14      30.01S
WASHINGTON *   CLOUDY    72  66  83 W14       30.01
$$

ABBREVIATIONS USED IN REMARKS
   TC - TEMPERATURES IN CELSIUS
  WCI - WIND CHILL INDEX
   HX - HEAT INDEX
  VSB - VISIBILITY
$$





USA.gov is the U.S. government's official web portal to all federal, state and local government web resources and services.